Probability
3 3 2 1 0 0 0 0 0 0 0 0 0 0 0 0 0 0 0 0 0 1 2 3 3 3 3 3 3 3 3 3 3 3 3 3 3 3 3 3 3 3 1 0 0 1 2 3 3
3 3 2 1 0 0 0 0 0 0 0 0 0 0 0 0 0 0 0 0 0 1 2 3 3 3 3 3 3 3 3 3 3 3 3 3 3 3 3 3 3 3 2 1 1 1 2 3 3
2 2 1 0 0 0 0 0 0 0 0 0 0 0 0 0 0 0 0 0 0 0 1 1 2 2 2 3 3 3 3 3 3 3 3 3 3 3 2 3 3 3 3 3 2 2 3 2 2
1 1 0 0 0 0 0 0 0 0 0 0 0 0 0 0 0 0 0 0 0 0 0 1 1 1 1 1 2 3 3 3 3 3 3 3 2 1 1 1 2 2 3 3 3 3 3 3 2
0 0 0 0 0 0 0 0 0 0 0 0 0 0 0 0 0 0 0 0 0 0 1 2 2 1 1 1 1 1 2 3 3 3 3 3 2 0 0 0 1 1 1 2 3 3 3 3 3
0 0 0 0 0 0 0 0 0 0 0 0 0 0 0 0 0 0 0 0 0 1 1 3 3 3 2 2 1 1 2 3 3 3 3 3 2 1 1 1 1 0 0 1 1 2 3 3 3
0 0 0 0 0 0 0 0 0 0 0 0 0 0 0 0 0 0 0 0 1 2 3 3 3 3 3 3 3 2 3 3 3 3 3 3 3 3 2 2 2 1 1 0 0 1 2 3 3
0 0 0 0 0 0 0 0 0 0 0 0 0 0 0 0 1 1 1 1 1 3 3 3 3 3 3 3 3 3 3 3 3 3 3 3 3 3 3 3 3 3 2 1 0 0 1 3 3
0 0 0 0 0 0 0 0 0 0 0 0 0 0 0 1 2 2 2 2 3 3 3 3 3 3 3 3 3 3 4 3 3 3 3 3 3 3 3 3 3 3 3 2 1 1 1 2 2
0 0 0 0 1 1 0 0 0 0 0 0 0 0 0 1 2 3 3 3 3 3 3 4 4 4 4 4 4 4 5 4 3 3 3 3 3 3 3 3 3 3 3 3 3 2 1 1 1
0 0 0 0 1 1 0 0 0 0 0 0 0 0 0 0 1 1 2 3 3 3 4 4 4 5 7 6 5 5 6 5 4 4 4 3 3 3 2 2 2 2 2 2 2 2 1 0 0
0 0 0 0 1 1 0 0 0 0 0 0 0 0 0 0 0 0 1 1 2 3 3 4 5 6 8 8 6 6 6 6 6 6 5 4 3 2 1 1 1 1 1 1 1 1 0 0 0
0 0 0 0 0 0 0 0 0 0 0 0 0 0 0 0 0 0 0 0 1 2 3 5 6 7 8 8 8 7 7 6 6 7 7 5 4 2 1 0 0 0 0 0 0 0 0 0 0
0 0 0 0 0 0 0 0 0 0 0 0 0 0 0 0 0 0 0 0 0 1 2 3 5 7 9 11 11 10 9 7 6 6 6 6 5 2 1 0 0 0 0 0 0 0 0 0 0
0 0 0 0 0 0 0 0 0 0 0 0 0 0 0 0 0 0 0 0 0 0 0 1 3 6 11 14 15 15 13 12 9 6 5 5 4 2 0 0 0 0 0 0 0 0 0 0 0
0 0 0 0 0 0 0 0 0 0 0 0 0 0 0 0 0 0 0 0 0 0 0 1 2 4 8 14 17 18 18 16 13 9 6 4 3 2 1 0 0 0 0 0 0 0 0 0 0
0 0 0 0 0 0 0 0 0 0 0 0 0 0 0 0 0 0 0 0 0 0 0 0 1 1 4 9 14 17 17 16 15 13 9 6 4 3 2 1 0 0 0 0 0 0 0 0 0
0 0 0 0 0 0 0 0 0 0 0 0 0 0 0 0 0 0 0 0 0 0 0 0 0 0 1 3 8 11 13 15 17 17 12 8 6 5 3 2 1 0 0 0 0 0 0 0 0
0 0 0 0 0 0 0 0 0 0 0 0 0 0 0 0 0 0 0 0 0 0 0 0 0 0 0 1 3 6 9 14 19 19 15 10 7 6 4 3 2 0 0 0 0 0 0 0 0
0 0 0 0 0 0 0 0 0 0 0 0 0 0 0 0 0 0 0 0 0 0 0 0 0 1 1 1 1 2 6 12 17 19 17 13 9 7 5 4 1 0 0 0 0 0 0 0 0
0 0 0 0 0 0 0 0 0 0 0 0 0 0 0 0 0 0 0 0 0 0 0 0 0 1 1 1 0 2 6 11 14 18 19 16 11 7 5 4 2 0 0 0 0 0 0 0 0
0 0 0 0 0 0 0 0 0 0 0 0 0 0 0 0 0 0 0 0 0 0 0 0 0 0 0 1 1 2 7 11 13 15 17 16 11 6 3 3 2 0 0 0 0 0 0 0 0
0 0 0 0 0 0 0 0 0 0 0 0 0 0 0 0 0 0 0 0 0 0 0 0 0 0 0 1 1 3 7 10 11 12 13 13 8 3 1 1 1 0 0 0 0 0 0 0 0
0 0 0 0 0 0 0 0 0 0 0 0 0 0 0 0 0 0 0 0 0 0 0 0 0 0 1 2 3 4 6 7 9 9 9 8 5 2 0 0 0 0 0 0 0 0 0 0 0
0 0 0 0 0 0 0 0 0 0 0 0 0 0 0 0 0 0 0 0 0 0 0 0 0 0 1 2 4 4 3 4 6 7 8 6 4 3 1 0 0 0 0 0 0 0 0 0 0
0 0 0 0 0 0 0 0 0 0 0 0 0 0 0 0 0 0 0 0 0 0 0 0 0 0 0 1 2 2 1 1 4 6 6 6 4 3 2 1 0 0 0 0 0 0 0 0 0
0 0 0 0 0 0 0 0 0 0 0 0 0 0 0 0 0 0 0 0 0 0 0 0 0 0 0 0 1 1 0 1 2 3 4 4 4 2 1 0 0 0 0 0 1 0 0 0 0
0 0 0 0 0 0 0 0 0 0 0 0 0 0 0 0 0 0 0 0 0 0 0 0 0 0 0 0 0 0 0 0 1 1 1 2 2 1 0 0 0 0 0 0 0 0 0 0 0
0 0 0 0 0 0 0 0 0 0 0 0 0 0 0 0 0 0 0 0 0 0 0 0 0 0 0 0 0 0 0 0 0 0 0 1 1 0 0 0 0 0 0 0 0 0 0 0 0
0 0 0 0 0 0 0 0 0 0 0 0 0 0 0 0 0 0 0 0 0 0 0 0 0 0 0 0 0 0 0 0 0 0 0 0 0 0 0 0 0 0 0 0 0 0 0 0 0
Wind_Speed
1 4 4 3 6 6 3 3 2 2 3 2 3 5 5 3 2 1 2 8 10 10 7 10 12 12 11 10 10 10 9 9 10 10 10 10 10 10 9 9 9 8 8 7 7 7 7 7 7
2 4 3 5 6 4 2 3 2 1 3 3 4 5 5 3 3 5 4 6 10 10 7 8 13 12 11 11 10 9 9 9 9 9 9 9 9 9 8 8 8 8 7 7 7 6 7 6 6
4 2 4 5 4 3 1 2 1 2 3 2 4 4 3 2 4 4 5 9 10 8 7 8 13 12 11 10 10 9 9 9 9 9 8 8 8 8 8 7 7 7 7 6 6 6 6 6 6
3 4 5 5 3 1 2 2 2 3 3 4 4 4 3 2 6 5 10 11 10 8 6 8 13 12 11 11 10 10 9 9 9 8 8 7 7 7 7 7 7 6 6 6 5 5 5 5 5
3 4 6 4 4 3 2 1 1 2 2 3 3 4 3 3 6 11 12 10 9 7 6 7 13 13 12 11 10 10 10 9 9 8 7 7 7 6 6 6 6 5 5 5 5 4 4 4 4
4 5 6 3 5 5 3 2 2 3 3 3 4 3 2 2 7 10 10 8 8 8 7 7 13 13 12 11 11 11 10 10 9 8 7 7 6 6 5 5 5 4 4 4 4 4 4 4 4
4 5 4 2 3 5 5 4 2 2 2 2 4 4 1 2 5 8 7 6 6 6 6 5 6 9 12 12 12 11 11 10 9 9 8 7 6 6 5 5 4 4 3 3 3 3 3 4 4
4 5 4 2 2 4 6 4 2 2 2 2 3 5 4 5 5 6 6 5 4 4 4 5 5 5 5 7 12 12 12 11 10 9 8 8 7 6 5 4 4 3 3 2 2 2 2 3 4
4 6 2 0 1 2 5 4 4 4 5 4 2 1 2 9 8 6 5 3 3 5 3 4 4 5 5 5 8 10 11 11 10 8 10 7 3 2 2 4 4 4 3 2 1 1 1 3 4
5 4 1 1 2 0 4 6 6 6 7 7 6 7 7 10 8 6 5 6 6 7 6 4 5 5 4 5 4 3 4 5 5 4 4 3 3 2 3 3 6 5 4 3 2 1 2 3 2
3 3 1 1 1 1 4 9 11 8 8 7 5 5 7 7 4 2 3 4 6 5 6 7 6 5 5 4 3 2 2 3 4 5 4 3 3 2 2 1 2 2 3 1 2 2 1 1 0
3 1 1 2 4 5 6 6 11 16 9 9 7 8 9 7 4 3 3 3 3 3 5 6 7 6 6 5 4 3 3 3 4 5 5 4 2 3 2 2 2 1 1 1 1 1 1 1 1
3 2 4 5 9 10 14 12 10 15 14 14 17 17 15 12 10 8 8 6 4 3 4 5 6 7 6 6 5 5 5 5 5 4 5 5 4 4 3 2 2 3 2 2 2 2 2 2 2
2 4 5 7 7 8 16 13 11 13 13 17 18 16 14 13 13 12 13 12 10 7 6 4 5 6 7 7 6 6 5 5 4 5 6 7 5 4 4 3 3 3 3 3 2 2 2 2 1
3 5 7 9 6 3 9 15 14 13 12 16 16 14 14 13 13 13 11 10 10 9 8 6 4 4 6 7 7 6 5 5 5 5 6 7 6 6 5 4 4 4 3 3 2 2 1 2 1
5 5 5 7 9 7 10 9 12 11 12 15 14 13 13 12 12 11 12 11 10 9 9 8 7 4 4 6 6 5 5 5 6 5 6 8 8 7 5 4 5 4 3 3 3 2 2 1 1
6 4 3 5 11 8 11 8 9 10 13 14 13 12 12 12 14 12 12 11 10 9 9 9 8 7 5 4 4 5 4 5 5 5 5 6 8 8 6 5 4 4 3 3 3 2 2 2 2
1 2 3 4 6 11 12 9 8 10 12 12 12 11 12 14 13 12 11 10 10 9 8 8 8 7 6 4 3 3 4 5 4 5 6 7 6 8 7 5 5 4 3 3 3 3 2 2 2
3 3 3 3 4 8 10 9 7 9 13 14 13 13 13 13 11 11 11 10 9 10 10 9 8 8 5 3 2 2 3 4 4 5 6 6 6 7 7 5 4 4 4 5 5 3 3 2 2
4 4 3 3 5 7 6 7 5 7 10 9 10 11 12 14 15 14 13 11 10 9 10 9 8 8 6 4 3 3 3 3 4 4 5 6 6 7 7 6 5 5 4 4 4 3 3 2 3
3 3 1 2 4 5 4 3 7 6 6 9 11 9 11 13 15 15 14 12 11 10 10 9 9 8 7 6 4 3 2 2 2 4 4 5 6 6 5 6 5 5 4 4 4 4 5 3 2
2 1 1 2 4 2 2 0 5 8 8 12 13 13 13 14 14 14 13 13 12 10 9 9 8 8 7 6 4 4 3 3 4 3 3 4 5 6 6 6 6 6 5 5 5 4 3 4 3
3 3 1 2 5 4 6 3 5 7 10 13 14 13 13 13 14 14 12 11 11 10 10 8 8 8 7 6 5 4 3 3 2 1 3 4 4 5 6 6 6 5 5 6 5 5 4 3 3
3 3 5 6 6 5 4 3 4 6 9 13 13 14 13 13 13 13 12 11 10 9 9 8 8 8 7 6 5 4 4 3 1 1 2 2 2 2 4 5 5 5 4 5 5 5 5 4 4
8 6 4 5 6 1 2 3 2 5 7 9 12 14 13 12 12 13 13 13 12 11 10 9 8 7 7 7 6 5 4 3 1 0 1 2 2 2 3 3 3 4 4 4 4 5 5 5 5
4 5 5 2 2 1 3 2 3 4 7 7 8 10 12 13 12 13 13 12 11 11 10 10 9 8 7 7 6 5 5 3 2 2 2 2 1 2 2 3 3 3 4 4 4 3 4 4 4
3 3 2 6 3 2 2 3 4 4 8 9 11 11 13 13 13 13 13 12 11 11 10 10 9 9 8 7 7 6 6 5 4 4 3 3 2 2 3 3 3 3 3 4 4 2 3 3 4
4 4 5 5 3 1 2 3 4 9 11 12 12 12 12 12 13 13 12 13 11 11 10 10 9 9 8 8 7 6 6 5 5 4 4 3 3 3 3 3 3 3 3 2 2 2 2 3 2
5 4 5 5 3 4 1 3 3 5 7 9 10 10 10 11 11 10 11 11 11 11 11 10 10 10 10 9 8 8 7 7 6 6 5 4 3 3 2 3 3 3 2 2 2 2 3 2 1
3 3 3 4 2 3 2 5 5 4 6 6 8 9 9 9 9 9 10 10 10 11 10 10 10 10 9 9 9 9 8 8 8 8 7 6 5 5 4 3 3 3 3 2 2 2 2 2 2
Wind_Direction
231 117 104 68 53 49 34 330 294 349 44 37 67 84 95 102 157 182 119 139 137 144 154 158 157 154 152 149 145 141 137 133 129 126 124 124 124 124 124 124 124 123 121 118 116 118 121 121 120
146 128 79 62 76 61 333 312 315 349 127 125 69 72 70 64 72 106 130 143 142 146 148 154 158 156 155 153 151 149 145 140 136 132 129 127 125 124 124 124 125 125 123 121 119 121 121 120 118
148 120 87 71 86 139 241 291 263 54 95 88 72 61 78 105 129 146 154 144 142 145 145 160 161 160 159 159 159 157 152 149 143 138 135 133 130 128 127 126 125 124 122 120 118 117 117 117 116
116 61 55 66 59 245 251 263 174 114 68 55 84 62 57 89 150 149 141 146 146 145 147 165 163 165 166 167 167 164 161 155 148 145 144 140 136 133 131 129 126 124 123 121 116 114 112 113 111
71 78 56 43 357 325 303 281 167 93 65 56 80 80 36 15 113 131 143 152 152 150 154 169 169 171 174 176 175 172 169 162 158 157 156 151 147 141 136 133 130 128 123 117 111 110 109 107 104
60 64 69 27 336 336 358 7 81 87 85 81 88 87 23 96 127 145 150 153 156 158 160 172 177 178 181 183 181 179 176 172 170 170 170 167 164 156 150 144 137 131 122 112 103 97 98 97 94
89 80 89 44 347 0 360 360 82 100 106 134 119 99 54 176 163 148 146 143 150 162 165 177 180 183 187 188 187 186 184 182 182 182 183 182 179 174 166 160 155 146 132 119 104 89 85 82 82
103 93 76 43 20 344 331 359 65 82 90 97 104 133 194 199 154 131 123 128 149 169 180 184 184 182 186 192 195 194 192 191 191 192 193 193 191 189 187 181 181 178 168 148 115 79 69 67 65
75 72 76 147 116 315 338 22 28 52 70 46 50 149 196 138 129 119 116 132 167 192 203 199 198 194 190 195 205 200 199 198 197 199 202 198 191 194 200 203 208 213 208 199 179 60 40 47 42
72 98 200 198 176 257 14 36 18 42 37 15 17 35 86 122 136 146 161 180 196 206 207 204 206 204 197 205 206 201 200 196 194 191 199 182 174 196 209 226 228 230 232 239 243 277 22 53 40
84 141 208 338 139 35 39 49 36 47 28 355 347 50 90 104 120 160 204 210 215 218 215 209 208 206 202 210 205 200 198 191 192 192 192 180 179 200 215 214 258 270 269 307 346 10 46 66 47
82 58 79 32 66 57 50 49 53 42 14 356 32 64 69 68 54 19 338 308 284 251 231 225 213 209 210 211 214 203 200 199 199 197 191 181 187 202 210 212 222 231 232 226 246 268 275 266 249
65 57 58 56 79 79 71 55 64 31 18 35 48 48 44 41 30 22 15 0 336 296 267 247 223 214 212 211 219 213 210 210 206 198 197 192 196 206 211 218 216 215 206 209 228 245 258 257 246
69 83 58 39 65 70 76 50 43 12 16 38 43 43 39 35 26 22 16 10 1 346 323 290 250 229 216 215 218 218 212 213 206 207 205 201 203 206 209 218 217 216 205 203 212 234 255 263 245
82 84 50 28 33 78 84 47 22 3 24 39 37 35 34 30 25 19 8 2 356 350 347 333 288 246 227 224 225 226 215 207 209 214 210 207 207 208 209 215 220 217 199 195 201 224 234 246 229
49 58 46 19 15 30 76 60 9 6 32 37 30 26 24 21 19 12 5 359 355 351 350 346 338 322 265 236 226 226 220 213 215 211 206 208 211 210 206 214 225 212 186 183 189 192 194 212 199
34 57 46 20 20 42 73 75 17 18 35 34 23 17 13 10 9 4 359 354 350 347 345 345 343 340 318 279 242 227 224 219 216 208 206 206 208 208 205 215 222 201 185 186 195 175 176 188 196
20 76 64 54 41 66 82 79 36 25 34 31 19 12 8 4 356 350 350 349 345 342 341 340 337 338 330 310 271 238 230 226 217 211 207 203 205 205 202 210 213 192 186 187 179 168 162 171 171
100 104 94 81 98 78 85 78 39 24 27 21 13 7 2 354 345 344 343 344 344 342 341 336 334 332 332 328 303 262 236 226 221 219 212 203 203 202 197 204 201 188 195 199 180 158 157 153 132
76 93 79 78 97 99 104 79 40 32 26 15 6 357 351 347 347 346 344 343 343 337 333 331 329 326 326 317 290 266 252 238 225 220 210 201 202 200 201 194 191 184 189 189 178 160 150 151 151
51 103 120 138 83 87 117 55 13 359 8 9 8 357 350 348 342 339 339 337 337 336 333 331 325 322 321 319 304 291 274 252 221 219 211 201 197 194 192 191 185 178 177 187 185 175 162 160 168
340 344 285 179 122 67 3 4 359 334 346 1 359 354 349 344 339 337 336 334 333 330 326 325 323 323 321 320 314 293 271 258 243 229 210 196 188 183 180 180 180 176 173 172 179 170 166 153 162
303 342 37 120 122 76 26 69 331 336 352 348 344 344 341 340 338 336 334 328 327 327 326 328 327 329 330 327 314 298 286 274 273 235 192 186 182 181 175 175 173 176 174 172 170 168 168 162 165
350 61 60 55 71 57 348 54 352 345 332 329 332 336 337 337 336 336 335 333 330 330 329 333 335 335 337 336 333 321 304 296 290 227 183 176 169 165 168 169 169 169 169 175 177 177 176 178 177
36 66 43 23 34 31 347 76 327 301 318 320 323 331 335 338 339 340 342 340 338 339 339 340 339 342 345 346 352 352 339 331 343 351 157 144 149 147 159 156 159 159 167 176 176 177 178 183 184
34 88 123 151 166 307 13 37 273 288 312 317 323 331 340 343 346 347 345 342 341 344 349 350 350 353 353 355 358 3 5 6 12 28 60 85 100 118 130 140 148 153 157 164 167 170 176 177 186
60 62 123 119 109 71 1 339 315 326 338 340 342 344 345 346 348 349 348 349 350 351 356 356 360 2 2 3 6 12 15 24 29 35 52 66 72 96 116 128 135 142 148 156 154 166 183 177 185
87 107 76 83 106 64 352 346 313 323 332 336 339 340 340 344 347 349 351 352 354 356 1 5 5 7 7 12 14 18 15 21 29 40 45 53 67 79 100 112 121 126 133 139 142 157 176 180 187
22 52 78 84 101 126 28 299 263 290 309 321 325 329 334 340 342 345 349 353 358 3 9 10 8 12 14 15 17 21 20 22 31 38 38 44 52 61 83 100 108 113 121 130 145 169 167 172 182
94 82 117 117 95 111 137 271 281 294 305 315 320 327 332 335 339 344 350 355 1 4 7 9 9 13 12 13 20 22 23 29 33 34 32 38 45 47 53 69 81 87 89 97 138 159 156 155 166